Regional Weather Roundup
Issued by NWS

Home | Current Version | Previous Version | Graphics & Text | Print | Product List | Glossary On
Versions: 1 2 3 4 5 6 7 8 9 10 11 12 13 14 15 16 17 18 19 20 21 22 23 24 25 26 27 28 29 30 31 32 33 34 35 36 37 38 39 40 41 42 43 44 45 46 47 48 49 50
988
ASUS44 KLIX 290107
RWRLA
LOUISIANA WEATHER ROUNDUP
NATIONAL WEATHER SERVICE NEW ORLEANS LA
800 PM CDT SAT MAR 28 2015

NOTE: "FAIR" INDICATES FEW OR NO CLOUDS BELOW 12,000 FEET WITH NO
      SIGNIFICANT WEATHER AND/OR OBSTRUCTIONS TO VISIBILITY.
      SKY/WX - SKY CONDITION AND SIGNIFICANT WEATHER.
      TMP - AIR TEMPERATURE.    DP   - DEWPOINT TEMPERATURE.
      RH  - RELATIVE HUMIDITY.  PRES - PRESSURE.
      HX  - HEAT INDEX.         WCI  - WIND CHILL INDEX.

*  THESE STATIONS ARE NOT NWS OR FAA STATIONS AND ARE NOT UNDER
   NWS QUALITY CONTROL.

LAZ040-048-061>063-065-066-069-290200-
SOUTHEAST LOUISIANA

CITY           SKY/WX    TMP DP  RH WIND       PRES   REMARKS
N.O. AUDUBON   NOT AVBL
N.O. INTL ARPT CLEAR     60  46  59 SE9       30.19S
N.O. LAKEFRONT CLEAR     62  47  57 SE10      30.21R
SLIDELL        CLEAR     58  46  64 S6        30.20R
BATON ROUGE    CLEAR     66  47  50 SE9       30.16R
BOOTHVILLE     CLEAR     58  49  72 E5        30.23R
BELLE CHASSE   CLEAR     58  48  69 SE6       30.20R
BOGALUSA*        N/A     61  44  52 S5        30.19S HAZE
GALLIANO*      CLEAR     60  52  76 CALM      30.21R
NEW ROADS*     FAIR      65  47  51 S7        30.15R
GONZALES*      FAIR      63  51  65 CALM      30.17S
HAMMOND*       CLEAR     59  46  63 SE7       30.20S
HOUMA*         CLEAR     57  52  81 SE5       30.19S
PORT FOURCHON* CLEAR     64  54  68 SE8       30.23S

$$

LAZ041-044-053-054-290200-
SOUTHWEST LOUISIANA

CITY           SKY/WX    TMP DP  RH WIND       PRES   REMARKS
LAKE CHARLES   CLEAR     64  55  72 S5        30.12S
LAFAYETTE      CLEAR     64  55  72 S7        30.16R
PATTERSON      CLEAR     61  52  72 S7        30.18S
SALT POINT       N/A     61  55  81 SE6       30.17S
NEW IBERIA     CLEAR     62  54  74 S9        30.17S
CHENAULT AIRPK CLEAR     63  55  77 S6          N/A

$$

LAZ027-028-290200-
CENTRAL LOUISIANA

CITY           SKY/WX    TMP DP  RH WIND       PRES   REMARKS
FORT POLK      CLEAR     68  56  65 S10       30.09R
ALEXANDRIA INT CLEAR     68  52  56 S8        30.09R
ALEXANDRIA     CLEAR     63  50  62 S3        30.11R

$$

LAZ001-002-290200-
NORTHWEST LOUISIANA

CITY           SKY/WX    TMP DP  RH WIND       PRES   REMARKS
SHREVEPORT     CLEAR     67  48  50 SE6       30.05R
BARKSDALE AFB  CLEAR     66  48  51 E7        30.06R
DTN SHREVEPORT CLEAR     70  46  42 E7        30.06R

$$

LAZ014-016-290200-
NORTHEAST LOUISIANA

CITY           SKY/WX    TMP DP  RH WIND       PRES   REMARKS
MONROE         CLEAR     56  40  55 E12       30.17R
TALLULAH       LGT RAIN  56  37  49 E13       30.19R

$$




USA.gov is the U.S. government's official web portal to all federal, state and local government web resources and services.